SL-8 DEB

Satellite information

Favourite Embed

Satellite Type and Status

DEBRISIN ORBIT

Key statistics

Satellite SL-8 DEB at a glance.

Uptime

13063

Days in orbit

Revolutions

≈ 14.5

Per day

Orbit

LEO

Low Earth Orbit

Inclination

74.0

Latest

Satellite identification and parameters

Extended collection of information and parameters for SL-8 DEB.

Object identification

Identified? True

Debris? True

Object name: SL-8 DEB

International designator: 1990-004C

Object number (NORAD): 20434

Object ID (CCSDS): 20434

Country: COMMONWEALTH OF INDEPENDENT STATES (CIS)

Current information (Y/N): Y

RCS size: SMALL

Orbital parameters

Period: 99.359 minutes

Inclination: 74.0416 deg

SMA: 7106.088 km

Apoapsis: 737.871 km

Periapsis: 718.034 km

RAAN: 78.0183 deg

Eccentricy: 0.00139578

Argument of periapsis: 39.8858 deg

Mean anomaly: 114.6835 deg

Mean motion: 14.49295462 rev/day

Mean motion (dot): 0.00002378 rev/day2

B* drag term: 0.00062946327 1/REarth

Two-line elements (TLE)

Creation date: Oct. 24, 2025, 2:48 a.m.

Reference frame: TEME

Reference center: EARTH

Epoch: Oct. 23, 2025, 7:44 p.m. UTC

TLE line 0: 0 SL-8 DEB

TLE line 1: 1 20434U 90004C 25296.82290881 .00002378 00000-0 62946-3 0 9998

TLE line 2: 2 20434 74.0416 78.0183 0013958 39.8858 114.6835 14.49295462875915

Live tracking on map

Real-time ground track for satellite SL-8 DEB.

In-orbit conjunctions

A list of the most updated potential collisions computed for object SL-8 DEB.

Target Orbit TCA Probability of collision Miss distance Type
DMSP 5D-2 F13 DEB SSO 2025-01-18 21:36:29 0.0001400517 119.0 (m) DEBRIS
DELTA 1 DEB SSO 2024-12-05 04:47:59 0.0001375669 232.0 (m) DEBRIS

Associated space launch

Military communications satellite

SL-8 DEB was lifted into orbit during the mission ‘Kosmos-3M | Strela-2M 47’, on board a Kosmos-3M space rocket.

The launch took place on Jan. 18, 1990, 12:52 p.m. from 133/3 (133L).

For more information about the launch, click the button.

Launch to space Kosmos-3M | Strela-2M 47
Kosmos-3M | Strela-2M 47

Agency: N/A

Status: Launch Successful

Launch date: Jan. 18, 1990, 12:52 p.m. UTC

Rocket: Kosmos-3M

Launch pad: 133/3 (133L)

Location: Plesetsk Cosmodrome, Russian Federation

...

Latest news about this satellite

There are no fresh news available about this satellite. Check back as we update our databases every day.


Newsletter sign-up

Weekly statistics, charts and insights to help you stay on top of the space industry.